{"data":{"norad_id":47262,"epoch":"2026-05-25T03:08:09.666816Z","epoch_age_seconds":77490,"freshness":"FRESH","line1":"1 47262U 20100E   26145.13066744 -.00000034  00000+0 -13113-3 0  9993","line2":"2 47262  87.8963 355.2436 0001718  94.4643 265.6682 13.12441648261490","mean_motion":13.12441648,"eccentricity":0.0001718,"inclination_deg":87.8963,"raan_deg":355.2436,"arg_perigee_deg":94.4643,"mean_anomaly_deg":265.6682,"bstar":-0.00013113,"rev_number":26149,"period_min":109.71916368201,"perigee_km":1212.4242223444,"apogee_km":1215.0327873318,"semimajor_km":7591.8655048381,"source":"CELESTRAK","updated_at":"2026-05-25T13:38:22.379163Z"}}